Fasat-Charlie

operational
NORAD ID: 38011 Int'l Des: 2011-076 Owner: FACH Country: CL
LEOCIRCULARRETROGRADESSO

关于 Fasat-Charlie

正在加载描述...

实时位置

正在加载3D地球...

即将过境

高度历史

Altitude vs Time

uPlot chart will show altitude changes over time

两行轨道根数

1 38011U 11076E 26062.66524919 .00001199 00000-0 15668-3 0 9995
2 38011 97.8206 125.5346 0001585 93.5729 67.1394 14.82249773768746
Epoch: Mar 3, 2026 • Age: 36 hours

当前状态

高度 625.4 km
速度 7.55 km/s
星下点 28.91°N, 133.22°E
发射日期 Dec 17, 2011
运行时间 14.2 years
类型 other

技术详情

分类 Payload
质量 116.00 kg
干质量 116.00 kg
总质量 116.00 kg
长度 0.60 m
直径 1.00 m
跨度 1.00 m
形状 Box + Pan
制造商 ASTT
平台类型 Myriade
阶段状态 In Orbit
所有者/国家 FACH/CL

大型星座

Loading constellations...